Red Oak, IA

8:53 PM CST on February 07, 2016 (GMT -0600)
Red Oak Municipal

Weather History for KRDK - June, 2013

Change the Weather History Date:

Sunday, June 23, 2013

  Actual Average Record
Temperature  
Mean Temperature 71 °F -  
Max Temperature 80 °F 85 °F 102 °F (1988)
Min Temperature 62 °F 60 °F 48 °F (1958)
Cooling Degree Days 6    
Growing Degree Days 21 (Base 50)    
Moisture  
Dew Point 64 °F    
Average Humidity 69    
Maximum Humidity 83    
Minimum Humidity 57    
Precipitation  
Precipitation 1.39 in - - ()
Sea Level Pressure  
Sea Level Pressure 29.87 in    
Wind  
Wind Speed 11 mph (South)    
Max Wind Speed 25 mph    
Max Gust Speed 36 mph    
Visibility 10 miles    
Events Rain    
Averages and records for this station are not official NWS values.
T = Trace of Precipitation, MM = Missing Value Source: NWS Daily Summary

Daily Weather History Graph

Daily Weather History Graph

Search for Another Location

Airport or City:

Trip Planner

Search our weather history database for the weather conditions in past years. The results will help you decide how hot, cold, wet, or windy it might be!

Date:

Astronomy

Jun. 23, 2013 Rise Set
Actual Time 5:49 AM CDT 8:57 PM CDT
Civil Twilight 5:15 AM CDT 9:30 PM CDT
Nautical Twilight 4:32 AM CDT 10:13 PM CDT
Astronomical Twilight 3:41 AM CDT 11:04 PM CDT
Moon 9:09 PM CDT (6/23) 6:08 AM CDT (6/23)
Length of Visible Light 16h 14m
Length of Day
15h 07m
Full, 100% of the Moon is Illuminated
Jun 23
Full
Jun 29
Last Quarter
Jul 8
New
Jul 15
First Quarter
Jul 22
Full

Hourly Weather History & Observations

Time (CDT) Temp. Heat Index Dew Point Humidity Pressure Visibility Wind Dir Wind Speed Gust Speed Precip Events Conditions
12:15 AM 80.6 °F 82.3 °F 64.4 °F 58% 29.86 in 10.0 mi South 13.8 mph - N/A   Clear
12:35 AM 78.8 °F - 64.4 °F 61% 29.84 in 10.0 mi South 13.8 mph 21.9 mph N/A   Clear
12:55 AM 78.8 °F - 64.4 °F 61% 29.82 in 10.0 mi South 20.7 mph 26.5 mph N/A   Scattered Clouds
1:15 AM 78.8 °F - 64.4 °F 61% 29.81 in 10.0 mi South 16.1 mph 23.0 mph N/A   Scattered Clouds
1:35 AM 78.8 °F - 64.4 °F 61% 29.81 in 10.0 mi South 18.4 mph 23.0 mph N/A   Scattered Clouds
1:55 AM 78.8 °F - 64.4 °F 61% 29.83 in 10.0 mi South 17.3 mph 23.0 mph N/A   Scattered Clouds
2:15 AM 78.8 °F - 64.4 °F 61% 29.82 in 10.0 mi South 18.4 mph 25.3 mph N/A   Scattered Clouds
2:35 AM 78.8 °F - 64.4 °F 61% 29.83 in 10.0 mi South 17.3 mph 23.0 mph N/A   Scattered Clouds
2:55 AM 78.8 °F - 64.4 °F 61% 29.83 in 10.0 mi South 16.1 mph 21.9 mph N/A   Scattered Clouds
3:15 AM 78.8 °F - 64.4 °F 61% 29.82 in 10.0 mi South 19.6 mph 25.3 mph N/A   Scattered Clouds
3:35 AM 78.8 °F - 64.4 °F 61% 29.82 in 10.0 mi South 17.3 mph 26.5 mph N/A   Scattered Clouds
3:55 AM 78.8 °F - 64.4 °F 61% 29.81 in 10.0 mi South 15.0 mph 23.0 mph N/A   Clear
4:15 AM 78.8 °F - 64.4 °F 61% 29.82 in 10.0 mi South 15.0 mph - N/A   Scattered Clouds
4:35 AM 78.8 °F - 64.4 °F 61% 29.80 in 10.0 mi South 19.6 mph 25.3 mph N/A   Scattered Clouds
4:55 AM 78.8 °F - 62.6 °F 57% 29.81 in 10.0 mi South 18.4 mph 24.2 mph N/A   Scattered Clouds
5:15 AM 78.8 °F - 62.6 °F 57% 29.83 in 10.0 mi South 15.0 mph - N/A   Scattered Clouds
5:35 AM 78.8 °F - 62.6 °F 57% 29.83 in 10.0 mi SSW 12.7 mph 19.6 mph N/A   Scattered Clouds
5:55 AM 77.0 °F - 64.4 °F 65% 29.86 in 10.0 mi WSW 5.8 mph - N/A Rain Light Rain
6:15 AM 69.8 °F - 60.8 °F 73% 29.92 in 3.0 mi NNW 16.1 mph 35.7 mph N/A Rain Heavy Rain
6:35 AM 64.4 °F - 57.2 °F 77% 29.94 in 2.5 mi North 19.6 mph 29.9 mph 0.45 in Rain Light Rain
6:55 AM 64.4 °F - 57.2 °F 77% 29.95 in 5.0 mi North 18.4 mph 24.2 mph 0.65 in Rain Heavy Rain
7:15 AM 62.6 °F - 57.2 °F 82% 29.97 in 4.0 mi NNE 9.2 mph 21.9 mph 0.43 in Rain Heavy Rain
7:35 AM 62.6 °F - 57.2 °F 82% 29.98 in 5.0 mi ENE 5.8 mph - 0.62 in Rain Heavy Rain
7:55 AM 62.6 °F - 57.2 °F 82% 29.93 in 10.0 mi NE 10.4 mph - 0.67 in Rain Light Rain
8:15 AM 62.6 °F - 57.2 °F 82% 29.92 in 10.0 mi NE 13.8 mph 18.4 mph 0.03 in Rain Light Rain
8:35 AM 62.6 °F - 57.2 °F 82% 29.83 in 10.0 mi East 25.3 mph - 0.07 in Rain Light Rain
8:55 AM 62.6 °F - 57.2 °F 82% 29.84 in 10.0 mi East 20.7 mph 35.7 mph 0.07 in Rain Light Rain
9:15 AM 62.6 °F - 57.2 °F 82% 29.84 in 10.0 mi East 8.1 mph 23.0 mph N/A   Scattered Clouds
9:35 AM 62.6 °F - 57.2 °F 82% 29.83 in 10.0 mi ESE 10.4 mph - N/A   Scattered Clouds
9:55 AM 64.4 °F - 57.2 °F 77% 29.85 in 10.0 mi SE 5.8 mph - N/A Rain Light Rain
10:15 AM 64.4 °F - 59.0 °F 83% 29.85 in 10.0 mi SSE 8.1 mph - N/A   Clear
10:35 AM 66.2 °F - 60.8 °F 83% 29.84 in 10.0 mi South 3.5 mph - N/A   Clear
10:55 AM 69.8 °F - 60.8 °F 73% 29.85 in 10.0 mi South 3.5 mph - N/A   Clear
11:15 AM 71.6 °F - 62.6 °F 73% 29.84 in 10.0 mi SW 4.6 mph - N/A   Clear
11:35 AM 75.2 °F - 62.6 °F 65% 29.86 in 10.0 mi SW 9.2 mph - N/A   Clear
11:55 AM 73.4 °F - 62.6 °F 69% 29.88 in 10.0 mi SW 10.4 mph - N/A   Clear
12:15 PM 73.4 °F - 62.6 °F 69% 29.88 in 10.0 mi SSW 9.2 mph - N/A   Clear
12:35 PM 75.2 °F - 64.4 °F 69% 29.89 in 10.0 mi SW 6.9 mph - N/A   Clear
12:55 PM 75.2 °F - 64.4 °F 69% 29.89 in 10.0 mi SSW 5.8 mph - N/A   Clear
1:15 PM 75.2 °F - 64.4 °F 69% 29.89 in 10.0 mi SSW 8.1 mph - N/A   Clear
1:35 PM 77.0 °F - 64.4 °F 65% 29.90 in 10.0 mi SSW 4.6 mph - N/A   Clear
1:55 PM 77.0 °F - 66.2 °F 69% 29.90 in 10.0 mi SW 3.5 mph - N/A   Scattered Clouds
2:15 PM 78.8 °F - 66.2 °F 65% 29.90 in 10.0 mi SSW 6.9 mph - N/A   Scattered Clouds
2:35 PM 78.8 °F - 66.2 °F 65% 29.90 in 10.0 mi SW 5.8 mph - N/A   Scattered Clouds
2:55 PM 77.0 °F - 66.2 °F 69% 29.90 in 10.0 mi Calm Calm - N/A   Overcast
3:15 PM 77.0 °F - 66.2 °F 69% 29.90 in 10.0 mi WSW 3.5 mph - N/A   Overcast
3:35 PM 78.8 °F - 66.2 °F 65% 29.89 in 10.0 mi Calm Calm - N/A   Overcast
3:55 PM 78.8 °F - 66.2 °F 65% 29.89 in 10.0 mi West 3.5 mph - N/A   Overcast
4:15 PM 80.6 °F 82.7 °F 66.2 °F 61% 29.87 in 10.0 mi WSW 3.5 mph - N/A   Scattered Clouds
4:35 PM 80.6 °F 82.7 °F 66.2 °F 61% 29.87 in 10.0 mi Calm Calm - N/A   Scattered Clouds
4:55 PM 80.6 °F 83.2 °F 68.0 °F 65% 29.87 in 10.0 mi West 3.5 mph - N/A   Scattered Clouds
5:15 PM 80.6 °F 83.2 °F 68.0 °F 65% 29.87 in 10.0 mi WSW 3.5 mph - N/A   Mostly Cloudy
5:35 PM 78.8 °F - 68.0 °F 69% 29.88 in 10.0 mi Calm Calm - N/A   Overcast
5:55 PM 78.8 °F - 68.0 °F 69% 29.88 in 10.0 mi Calm Calm - N/A   Mostly Cloudy
6:15 PM 80.6 °F 82.7 °F 66.2 °F 61% 29.87 in 10.0 mi Calm Calm - N/A   Mostly Cloudy
6:35 PM 78.8 °F - 68.0 °F 69% 29.87 in 10.0 mi Calm Calm - N/A   Overcast
6:55 PM 78.8 °F - 69.8 °F 74% 29.87 in 10.0 mi Calm Calm - N/A   Overcast
7:15 PM 78.8 °F - 69.8 °F 74% 29.86 in 10.0 mi Calm Calm - N/A   Mostly Cloudy
7:35 PM 78.8 °F - 68.0 °F 69% 29.86 in 10.0 mi Calm Calm - N/A   Mostly Cloudy
7:55 PM 78.8 °F - 69.8 °F 74% 29.86 in 10.0 mi East 3.5 mph - N/A   Scattered Clouds
8:15 PM 78.8 °F - 68.0 °F 69% 29.87 in 10.0 mi ESE 3.5 mph - N/A   Scattered Clouds
8:35 PM 77.0 °F - 68.0 °F 74% 29.87 in 10.0 mi ESE 4.6 mph - N/A   Scattered Clouds
8:55 PM 77.0 °F - 66.2 °F 69% 29.89 in 10.0 mi ESE 3.5 mph - N/A   Mostly Cloudy
9:15 PM 75.2 °F - 66.2 °F 73% 29.89 in 10.0 mi Calm Calm - N/A   Overcast
9:35 PM 75.2 °F - 66.2 °F 73% 29.90 in 10.0 mi ESE 5.8 mph - N/A   Overcast
9:55 PM 75.2 °F - 66.2 °F 73% 29.91 in 10.0 mi SE 5.8 mph - N/A   Overcast
10:15 PM 75.2 °F - 66.2 °F 73% 29.91 in 10.0 mi Calm Calm - N/A Rain Light Rain
10:35 PM 75.2 °F - 66.2 °F 73% 29.90 in 10.0 mi East 3.5 mph - N/A   Mostly Cloudy
10:55 PM 75.2 °F - 66.2 °F 73% 29.91 in 10.0 mi Calm Calm - N/A   Scattered Clouds
11:15 PM 75.2 °F - 66.2 °F 73% 29.90 in 10.0 mi Calm Calm - N/A   Scattered Clouds
11:35 PM 73.4 °F - 66.2 °F 78% 29.91 in 10.0 mi Calm Calm - N/A   Mostly Cloudy
11:55 PM 73.4 °F - 66.2 °F 78% 29.90 in 10.0 mi Calm Calm - N/A   Mostly Cloudy